Overview Statistics Trail Chart Weather Telemetry Raw packets
 

This is the latest recevied weather packets stored in our database for station/object W8KVG. If no packets are shown the sender has not sent any weather packets the latest 10 day(s).

<< 19 20 21 22 23 24 25 >>
Time Temp. Humidity Pressure Rain* Wind** Luminosity Snow
1777810856 3.89° C 84% 1016.6 hPa 0 mm - 29 W/m² -
1777810552 3.89° C 84% 1016.5 hPa 0 mm - 29 W/m² -
1777810249 3.89° C 85% 1016.5 hPa 0 mm - 28 W/m² -
1777809945 3.33° C 85% 1016.6 hPa 0 mm - 27 W/m² -
1777809644 3.33° C 85% 1016.5 hPa 0 mm - 27 W/m² -
1777809340 3.33° C 85% 1016.5 hPa 0 mm - 27 W/m² -
1777809038 3.33° C 86% 1016.5 hPa 0 mm - 41 W/m² -
1777808735 2.78° C 87% 1016.4 hPa 0 mm - 36 W/m² -
1777808432 2.78° C 89% 1016.5 hPa 0 mm - 25 W/m² -
1777808130 2.78° C 89% 1016.4 hPa 0 mm - 23 W/m² -
1777807828 2.22° C 90% 1016.4 hPa 0 mm - 22 W/m² -
1777807526 2.22° C 90% 1016.3 hPa 0 mm - 21 W/m² -
1777807228 2.22° C 91% 1016.1 hPa 0 mm - 20 W/m² -
1777806918 1.67° C 91% 1015.9 hPa 0 mm - 18 W/m² -
1777806615 1.67° C 91% 1016.1 hPa 0 mm - 17 W/m² -
1777806311 1.11° C 91% 1015.9 hPa 0 mm - 15 W/m² -
1777806008 0.56° C 91% 1015.9 hPa 0 mm - 14 W/m² -
1777805704 0.56° C 91% 1015.9 hPa 0 mm - 12 W/m² -
1777805402 0.56° C 91% 1015.7 hPa 0 mm - 10 W/m² -
1777805100 0.56° C 91% 1015.6 hPa 0 mm - 9 W/m² -
1777804797 0.56° C 90% 1015.4 hPa 0 mm - 7 W/m² -
1777804495 0.56° C 91% 1015.6 hPa 0 mm - 5 W/m² -
1777804191 0.56° C 91% 1015.6 hPa 0 mm - 4 W/m² -
1777803889 0.56° C 91% 1015.6 hPa 0 mm - 3 W/m² -
1777803585 0.56° C 90% 1015.5 hPa 0 mm - 2 W/m² -

* Rain latest hour (hover to see other rain measurements)
** Current wind speed in m/s (hover to see current wind gust speed)